Johnstown, PA

3:51 PM EDT on August 19, 2017 (GMT -0400)
Johnstown-Cambria County

Weather History for KJST - April, 2014

Change the Weather History Date:

Tuesday, April 8, 2014

  Actual Average Record
Temperature  
Mean Temperature 45 °F 44 °F  
Max Temperature 50 °F 54 °F 85 °F (1929)
Min Temperature 39 °F 35 °F 18 °F (1982)
Degree Days  
Heating Degree Days 20 21  
Month to date heating degree days 165 176  
Since 1 July heating degree days 6589 5968  
Cooling Degree Days 0 0  
Month to date cooling degree days 0 0  
Year to date cooling degree days 0 0  
Moisture  
Dew Point 37 °F    
Average Humidity 73    
Maximum Humidity 100    
Minimum Humidity 46    
Precipitation  
Precipitation T in 0.14 in 1.51 in (1899)
Month to date precipitation 1.47 1.08  
Year to date precipitation 7.46 9.60  
Sea Level Pressure  
Sea Level Pressure 29.52 in    
Wind  
Wind Speed 16 mph (WSW)    
Max Wind Speed 33 mph    
Max Gust Speed 45 mph    
Visibility 8 miles    
Events Fog    
T = Trace of Precipitation, MM = Missing Value Source: NWS Daily Summary

Daily Weather History Graph

Daily Weather History Graph

Search for Another Location

Airport or City:

Trip Planner

Search our weather history database for the weather conditions in past years. The results will help you decide how hot, cold, wet, or windy it might be!

Date:

Astronomy

Apr. 08, 2014 Rise Set
Actual Time 6:47 AM EDT 7:47 PM EDT
Civil Twilight 6:20 AM EDT 8:14 PM EDT
Nautical Twilight 5:47 AM EDT 8:47 PM EDT
Astronomical Twilight 5:12 AM EDT 9:22 PM EDT
Moon 1:38 PM EDT (4/8) 3:00 AM EDT (4/8)
Length of Visible Light 13h 54m
Length of Day
12h 59m
Waxing Gibbous, 62% of the Moon is Illuminated
Apr 8
Waxing Gibbous
Apr 15
Full
Apr 22
Last Quarter
Apr 29
New
May 6
First Quarter

Hourly Weather History & Observations

Time (EDT) Temp. Windchill Dew Point Humidity Pressure Visibility Wind Dir Wind Speed Gust Speed Precip Events Conditions
12:02 AM 41.0 °F 34.7 °F 41.0 °F 100% 29.48 in 2.0 mi South 10.4 mph - N/A   Overcast
12:17 AM 41.0 °F 33.5 °F 41.0 °F 100% 29.47 in 4.0 mi South 13.8 mph - N/A   Overcast
12:42 AM 41.0 °F 35.8 °F 41.0 °F 100% 29.47 in 2.5 mi SSW 8.1 mph - N/A   Overcast
12:51 AM 41.0 °F 34.3 °F 41.0 °F 100% 29.46 in 3.0 mi South 11.5 mph - N/A   Overcast
12:54 AM 41.0 °F 34.7 °F 41.0 °F 100% 29.49 in 3.0 mi South 10.4 mph - N/A   Overcast
1:52 AM 42.8 °F 36.6 °F 41.0 °F 93% 29.43 in 10.0 mi South 11.5 mph - N/A   Mostly Cloudy
1:54 AM 42.1 °F 35.7 °F 41.0 °F 96% 29.47 in 10.0 mi South 11.5 mph - N/A   Mostly Cloudy
2:07 AM 42.1 °F 35.7 °F 41.0 °F 96% 29.43 in 10.0 mi South 11.5 mph - N/A   Mostly Cloudy
2:31 AM 43.0 °F 36.8 °F 41.0 °F 93% 29.46 in 10.0 mi West 11.5 mph - N/A   Overcast
2:37 AM 41.0 °F 35.2 °F 39.9 °F 96% 29.44 in 0.8 mi WNW 9.2 mph - N/A   Overcast
2:42 AM 41.0 °F 39.0 °F 41.0 °F 100% 29.43 in 0.2 mi West 3.5 mph - N/A Fog Fog
2:54 AM 41.0 °F 38.0 °F 41.0 °F 100% 29.46 in 0.2 mi SSE 4.6 mph - N/A Fog Fog
3:06 AM 41.0 °F 39.0 °F 39.9 °F 96% 29.42 in 0.5 mi SE 3.5 mph - N/A Fog Fog
3:23 AM 41.0 °F 37.1 °F 41.0 °F 100% 29.41 in 1.8 mi SE 5.8 mph - N/A   Overcast
3:26 AM 42.1 °F 37.7 °F 41.0 °F 96% 29.42 in 3.0 mi SSE 6.9 mph - N/A   Overcast
3:54 AM 43.0 °F 38.2 °F 42.1 °F 97% 29.44 in 10.0 mi South 8.1 mph - N/A   Overcast
4:24 AM 46.9 °F - 43.0 °F 86% 29.40 in 10.0 mi SSW 9.2 mph - N/A   Overcast
4:54 AM 48.0 °F - 44.1 °F 86% 29.42 in 10.0 mi SSW 15.0 mph 20.7 mph N/A   Overcast
5:12 AM 48.0 °F - 42.1 °F 80% 29.39 in 10.0 mi SW 12.7 mph 20.7 mph N/A   Overcast
5:54 AM 48.9 °F - 39.9 °F 71% 29.41 in 10.0 mi WSW 19.6 mph 34.5 mph N/A   Overcast
6:32 AM 48.0 °F - 39.0 °F 71% 29.41 in 10.0 mi WSW 19.6 mph 36.8 mph N/A   Overcast
6:54 AM 46.9 °F - 37.0 °F 68% 29.45 in 10.0 mi WSW 27.6 mph 44.9 mph N/A   Overcast
7:54 AM 44.1 °F 34.4 °F 36.0 °F 73% 29.48 in 10.0 mi West 27.6 mph 35.7 mph N/A   Overcast
8:54 AM 42.1 °F 33.6 °F 36.0 °F 79% 29.50 in 10.0 mi West 18.4 mph 39.1 mph 0.00 in   Overcast
9:54 AM 39.9 °F 29.5 °F 34.0 °F 79% 29.55 in 10.0 mi West 24.2 mph 32.2 mph 0.00 in   Overcast
10:11 AM 39.9 °F 29.0 °F 35.1 °F 83% 29.52 in 10.0 mi West 26.5 mph 44.9 mph N/A   Overcast
10:54 AM 39.9 °F 30.5 °F 35.1 °F 83% 29.58 in 10.0 mi West 19.6 mph 33.4 mph N/A   Overcast
11:54 AM 39.9 °F 30.2 °F 36.0 °F 86% 29.60 in 10.0 mi West 20.7 mph 29.9 mph N/A   Overcast
12:54 PM 41.0 °F 32.8 °F 36.0 °F 82% 29.61 in 10.0 mi West 16.1 mph 28.8 mph N/A   Overcast
1:31 PM 44.1 °F 37.1 °F 37.0 °F 76% 29.58 in 10.0 mi West 15.0 mph 28.8 mph N/A   Overcast
1:54 PM 46.0 °F 38.0 °F 37.0 °F 71% 29.61 in 10.0 mi WNW 21.9 mph 28.8 mph N/A   Overcast
2:54 PM 46.0 °F 38.0 °F 36.0 °F 68% 29.62 in 10.0 mi WNW 21.9 mph - N/A   Overcast
3:54 PM 50.0 °F - 36.0 °F 59% 29.61 in 10.0 mi WNW 17.3 mph 24.2 mph N/A   Mostly Cloudy
4:54 PM 48.9 °F - 33.1 °F 54% 29.61 in 10.0 mi NW 15.0 mph 20.7 mph N/A   Mostly Cloudy
5:54 PM 50.0 °F - 30.9 °F 48% 29.63 in 10.0 mi WNW 17.3 mph 26.5 mph N/A   Clear
6:54 PM 48.9 °F - 30.0 °F 48% 29.66 in 10.0 mi NW 11.5 mph - N/A   Clear
7:54 PM 46.0 °F 41.4 °F 30.0 °F 54% 29.69 in 10.0 mi NW 9.2 mph - N/A   Clear
8:54 PM 43.0 °F 38.2 °F 28.9 °F 58% 29.71 in 10.0 mi NW 8.1 mph - N/A   Clear
9:54 PM 43.0 °F 37.7 °F 26.1 °F 51% 29.73 in 10.0 mi NNW 9.2 mph - N/A   Clear
10:54 PM 43.0 °F 37.2 °F 24.1 °F 47% 29.73 in 10.0 mi NNW 10.4 mph - N/A   Clear
11:54 PM 42.1 °F 36.1 °F 24.1 °F 49% 29.75 in 10.0 mi NNW 10.4 mph - N/A   Clear